When you browse on this site, cookies collect data to enhance your experience and personalize the content and advertising you see.
Visit our Privacy Policy to learn more. By continuing to use the site, you agree to this use of cookies and data.
  • In Czech Republic
  • List of Countries
  • For 7 days
  • Water Temperature
  • Satellite Maps
  • Weather Map
  • Weather Widgets
  • user-avatar
    Login

    Hourly Weather Kaletnik

    Today, 19 February, Tuesday

    Time Temperature Precipitation Wind Pressure Humidity
    00:00 0°C° 0 mm 4 mps 749 mmHg 92%
    01:00 0°C° 0 mm 4 mps 749 mmHg 93%
    02:00 0°C° 0 mm 4 mps 748 mmHg 94%
    03:00 0°C° 0 mm 4 mps 747 mmHg 94%
    04:00 0°C° 0 mm 4 mps 747 mmHg 94%
    05:00 0°C° 0 mm 4 mps 746 mmHg 94%
    06:00 -1°C° 0 mm 4 mps 746 mmHg 94%
    07:00 -1°C° 0 mm 4 mps 745 mmHg 94%
    08:00 -1°C° 0 mm 4 mps 744 mmHg 94%
    09:00 0°C° 0 mm 5 mps 744 mmHg 88%
    10:00 +1°C° 0 mm 5 mps 744 mmHg 82%
    11:00 +2°C° 0 mm 5 mps 743 mmHg 76%
    12:00 +4°C° 0 mm 6 mps 743 mmHg 70%
    13:00 +5°C° 0 mm 6 mps 742 mmHg 65%
    14:00 +8°C° 0 mm 5 mps 741 mmHg 59%
    15:00 +7°C° 0 mm 5 mps 741 mmHg 61%
    16:00 +7°C° 0 mm 5 mps 741 mmHg 63%
    17:00 +7°C° 0 mm 5 mps 740 mmHg 64%
    18:00 +6°C° 0 mm 5 mps 740 mmHg 70%
    19:00 +5°C° 0 mm 4 mps 740 mmHg 76%
    20:00 +4°C° 0 mm 4 mps 741 mmHg 82%
    21:00 +4°C° 0 mm 4 mps 740 mmHg 84%
    22:00 +3°C° 0 mm 4 mps 740 mmHg 85%
    23:00 +3°C° 0 mm 4 mps 740 mmHg 86%

    Tomorrow, 20 February, Wednesday

    Time Temperature Precipitation Wind Pressure Humidity
    00:00 +2°C° 0 mm 5 mps 740 mmHg 87%
    01:00 +2°C° 0 mm 5 mps 740 mmHg 87%
    02:00 +1°C° 0 mm 6 mps 740 mmHg 88%
    03:00 +2°C° 0 mm 6 mps 740 mmHg 86%
    04:00 +2°C° 0 mm 6 mps 740 mmHg 85%
    05:00 +2°C° 0 mm 6 mps 740 mmHg 84%
    06:00 +2°C° 0.1 mm 6 mps 740 mmHg 83%
    07:00 +2°C° 0.1 mm 6 mps 740 mmHg 83%
    08:00 +1°C° 0.1 mm 6 mps 740 mmHg 82%
    09:00 +2°C° 0 mm 7 mps 740 mmHg 80%
    10:00 +2°C° 0 mm 7 mps 740 mmHg 78%
    11:00 +1°C° 0 mm 8 mps 741 mmHg 76%
    12:00 +1°C° 0 mm 8 mps 741 mmHg 75%
    13:00 +1°C° 0 mm 8 mps 741 mmHg 74%
    14:00 +2°C° 0 mm 8 mps 741 mmHg 73%
    15:00 +1°C° 0 mm 8 mps 742 mmHg 74%
    16:00 +1°C° 0 mm 8 mps 742 mmHg 75%
    17:00 +1°C° 0 mm 8 mps 743 mmHg 76%
    18:00 0°C° 0 mm 8 mps 743 mmHg 73%
    19:00 -2°C° 0 mm 7 mps 744 mmHg 71%
    20:00 -3°C° 0 mm 6 mps 745 mmHg 69%
    21:00 -3°C° 0 mm 6 mps 745 mmHg 68%
    22:00 -4°C° 0 mm 5 mps 746 mmHg 67%
    23:00 -4°C° 0 mm 5 mps 746 mmHg 66%

    Day after tomorrow, 21 February, Thursday

    Time Temperature Precipitation Wind Pressure Humidity
    00:00 -4°C° 0 mm 5 mps 746 mmHg 66%
    01:00 -4°C° 0 mm 5 mps 747 mmHg 66%
    02:00 -4°C° 0 mm 5 mps 747 mmHg 65%
    03:00 -4°C° 0 mm 5 mps 747 mmHg 65%
    04:00 -5°C° 0 mm 5 mps 747 mmHg 64%
    05:00 -4°C° 0 mm 4 mps 748 mmHg 64%
    06:00 -4°C° 0 mm 4 mps 748 mmHg 63%
    07:00 -4°C° 0 mm 4 mps 748 mmHg 63%
    08:00 -4°C° 0 mm 3 mps 748 mmHg 62%
    09:00 -2°C° 0 mm 3 mps 748 mmHg 59%
    10:00 -2°C° 0 mm 2 mps 748 mmHg 57%
    11:00 -1°C° 0 mm 2 mps 748 mmHg 54%
    12:00 +1°C° 0.1 mm 1 mps 748 mmHg 56%
    13:00 0°C° 0.1 mm 1 mps 748 mmHg 58%
    14:00 -1°C° 0.1 mm 0 mps 747 mmHg 60%
    15:00 0°C° 0.2 mm 1 mps 747 mmHg 64%
    16:00 0°C° 0.2 mm 1 mps 747 mmHg 68%
    17:00 0°C° 0.2 mm 1 mps 747 mmHg 71%
    18:00 -2°C° 0.1 mm 2 mps 747 mmHg 69%
    19:00 -4°C° 0.1 mm 3 mps 747 mmHg 66%
    20:00 -4°C° 0.1 mm 3 mps 747 mmHg 64%
    21:00 -4°C° 0.1 mm 3 mps 748 mmHg 62%
    22:00 -4°C° 0.1 mm 4 mps 749 mmHg 61%
    23:00 -5°C° 0.1 mm 4 mps 749 mmHg 59%

    22 February, Friday

    Time Temperature Precipitation Wind Pressure Humidity
    00:00 -5°C° 0 mm 4 mps 750 mmHg 60%
    01:00 -5°C° 0 mm 4 mps 751 mmHg 61%
    02:00 -6°C° 0 mm 5 mps 752 mmHg 62%
    03:00 -7°C° 0 mm 5 mps 752 mmHg 61%
    04:00 -8°C° 0 mm 5 mps 753 mmHg 60%
    05:00 -9°C° 0 mm 6 mps 754 mmHg 60%
    06:00 -10°C° 0 mm 6 mps 755 mmHg 60%
    07:00 -10°C° 0 mm 6 mps 756 mmHg 60%
    08:00 -11°C° 0 mm 6 mps 757 mmHg 60%
    09:00 -10°C° 0 mm 5 mps 758 mmHg 55%
    10:00 -10°C° 0 mm 5 mps 759 mmHg 50%
    11:00 -8°C° 0 mm 5 mps 760 mmHg 45%
    12:00 -7°C° 0 mm 5 mps 760 mmHg 41%
    13:00 -7°C° 0 mm 4 mps 761 mmHg 37%
    14:00 -5°C° 0 mm 4 mps 761 mmHg 34%
    15:00 -5°C° 0 mm 4 mps 761 mmHg 34%
    16:00 -5°C° 0 mm 4 mps 761 mmHg 35%
    17:00 -5°C° 0 mm 3 mps 762 mmHg 35%
    18:00 -6°C° 0 mm 3 mps 762 mmHg 37%
    19:00 -6°C° 0 mm 3 mps 762 mmHg 40%
    20:00 -7°C° 0 mm 3 mps 763 mmHg 42%
    21:00 -7°C° 0 mm 3 mps 763 mmHg 44%
    22:00 -7°C° 0 mm 3 mps 763 mmHg 45%
    23:00 -7°C° 0 mm 3 mps 763 mmHg 47%

    23 February, Saturday

    Time Temperature Precipitation Wind Pressure Humidity
    00:00 -7°C° 0 mm 3 mps 763 mmHg 50%
    01:00 -8°C° 0 mm 3 mps 763 mmHg 52%
    02:00 -7°C° 0 mm 2 mps 763 mmHg 55%
    03:00 -7°C° 0 mm 2 mps 763 mmHg 56%
    04:00 -7°C° 0 mm 2 mps 763 mmHg 58%
    05:00 -8°C° 0 mm 2 mps 763 mmHg 59%
    06:00 -8°C° 0 mm 2 mps 762 mmHg 60%
    07:00 -6°C° 0 mm 1 mps 762 mmHg 61%
    08:00 -6°C° 0 mm 1 mps 762 mmHg 62%
    09:00 -4°C° 0 mm 1 mps 762 mmHg 59%
    10:00 -4°C° 0 mm 1 mps 762 mmHg 56%
    11:00 -3°C° 0 mm 1 mps 762 mmHg 54%
    12:00 -4°C° 0 mm 2 mps 762 mmHg 52%
    13:00 -3°C° 0 mm 2 mps 762 mmHg 50%
    14:00 -2°C° 0 mm 2 mps 761 mmHg 48%
    15:00 -3°C° 0 mm 2 mps 761 mmHg 52%
    16:00 -3°C° 0 mm 2 mps 760 mmHg 57%
    17:00 -4°C° 0 mm 3 mps 760 mmHg 61%
    18:00 -4°C° 0.1 mm 3 mps 760 mmHg 67%
    19:00 -5°C° 0.1 mm 3 mps 759 mmHg 73%
    20:00 -5°C° 0.1 mm 3 mps 759 mmHg 79%
    21:00 -5°C° 0.1 mm 3 mps 758 mmHg 81%
    22:00 -5°C° 0.1 mm 3 mps 758 mmHg 83%
    23:00 -4°C° 0.1 mm 3 mps 758 mmHg 86%

    24 February, Sunday

    Time Temperature Precipitation Wind Pressure Humidity
    00:00 -4°C° 0.1 mm 3 mps 758 mmHg 87%
    01:00 -4°C° 0.1 mm 3 mps 757 mmHg 89%
    02:00 -4°C° 0.1 mm 3 mps 757 mmHg 90%
    03:00 -2°C° 0 mm 2 mps 757 mmHg 92%
    04:00 -2°C° 0 mm 2 mps 757 mmHg 94%
    05:00 -2°C° 0 mm 2 mps 757 mmHg 96%
    06:00 -2°C° 0 mm 2 mps 758 mmHg 96%
    07:00 -2°C° 0 mm 2 mps 758 mmHg 96%
    08:00 -1°C° 0 mm 2 mps 758 mmHg 96%
    09:00 -1°C° 0 mm 3 mps 759 mmHg 93%
    10:00 -1°C° 0 mm 3 mps 759 mmHg 90%
    11:00 -1°C° 0 mm 3 mps 760 mmHg 87%
    12:00 0°C° 0 mm 3 mps 760 mmHg 86%
    13:00 +1°C° 0 mm 2 mps 760 mmHg 84%
    14:00 +1°C° 0 mm 2 mps 760 mmHg 82%
    15:00 +1°C° 0 mm 2 mps 760 mmHg 83%
    16:00 +1°C° 0 mm 2 mps 760 mmHg 83%
    17:00 +1°C° 0 mm 2 mps 760 mmHg 84%
    18:00 -1°C° 0 mm 2 mps 761 mmHg 86%
    19:00 -1°C° 0 mm 2 mps 761 mmHg 88%
    20:00 +1°C° 0 mm 1 mps 761 mmHg 90%
    21:00 +1°C° 0 mm 1 mps 761 mmHg 91%
    22:00 0°C° 0 mm 1 mps 761 mmHg 92%
    23:00 0°C° 0 mm 1 mps 761 mmHg 94%
    Show more